W4BJB-13 Weather Reports


time (UTC)temp
C
wind
direction
speed
KPH
gust
KPH
rain 1hr
cm
rain 24hr
cm
rain mn
cm
humidity
%
barometer
mb
20260510231504 25 28 1.6 3.2 0.00 0.00 0.00 57 987.8
20260510230504 26 336 0.0 3.2 0.00 0.00 0.00 54 987.8
20260510230004 26 259 1.6 3.2 0.00 0.00 0.00 51 987.8
20260510225504 26 281 0.0 3.2 0.00 0.00 0.00 50 987.7
20260510225004 26 299 1.6 3.2 0.00 0.00 0.00 50 987.7
20260510223004 26 1 1.6 3.2 0.00 0.00 0.00 57 987.8
20260510222005 26 344 0.0 1.6 0.00 0.00 0.00 49 987.7
20260510221504 26 324 0.0 1.6 0.00 0.00 0.00 52 987.7
20260510221005 26 294 1.6 4.8 0.00 0.00 0.00 52 987.7
20260510220504 26 355 1.6 3.2 0.00 0.00 0.00 54 987.8
20260510220005 26 35 1.6 3.2 0.00 0.00 0.00 56 987.8
20260510215503 26 294 1.6 4.8 0.00 0.00 0.00 49 987.8
20260510215004 25 290 1.6 8.0 0.00 0.00 0.00 55 987.8
20260510214505 25 218 1.6 4.8 0.00 0.00 0.00 53 987.8
20260510214005 25 284 1.6 3.2 0.00 0.00 0.00 62 987.8
20260510213505 25 295 1.6 3.2 0.00 0.00 0.00 60 987.8
20260510213005 25 17 0.0 3.2 0.00 0.00 0.00 59 987.7
20260510212505 25 26 0.0 1.6 0.00 0.00 0.00 58 987.8
20260510211505 25 22 0.0 1.6 0.00 0.00 0.00 56 988.0
20260510211005 25 2 0.0 1.6 0.00 0.00 0.00 57 988.0
20260510210505 25 283 1.6 3.2 0.00 0.00 0.00 63 988.0
20260510210005 25 356 0.0 3.2 0.00 0.00 0.00 58 988.0
20260510205505 25 35 0.0 1.6 0.00 0.00 0.00 59 988.0
20260510205005 25 358 1.6 3.2 0.00 0.00 0.00 64 988.0
20260510204505 25 18 1.6 1.6 0.00 0.00 0.00 64 988.1
20260510204005 25 13 0.0 1.6 0.00 0.00 0.00 61 988.2
20260510203504 25 29 0.0 1.6 0.00 0.00 0.00 59 988.2
20260510203005 25 334 0.0 1.6 0.00 0.00 0.00 60 988.3
20260510202505 26 25 0.0 3.2 0.00 0.00 0.00 60 988.2
20260510202005 26 14 1.6 1.6 0.00 0.00 0.00 56 988.2
20260510201005 27 42 0.0 3.2 0.00 0.00 0.00 51 988.2
20260510200505 27 36 0.0 1.6 0.00 0.00 0.00 49 988.2
20260510200005 28 326 0.0 1.6 0.00 0.00 0.00 48 988.2
20260510195504 28 16 0.0 4.8 0.00 0.00 0.00 48 988.3
20260510194504 28 262 1.6 3.2 0.00 0.00 0.00 40 988.3
20260510194005 28 274 1.6 3.2 0.00 0.00 0.00 42 988.3
20260510193504 28 315 0.0 3.2 0.00 0.00 0.00 43 988.3
20260510193006 28 274 1.6 4.8 0.00 0.00 0.00 42 988.3
20260510191505 28 203 3.2 4.8 0.00 0.00 0.00 43 988.3
20260510191005 28 213 3.2 4.8 0.00 0.00 0.00 40 988.3
20260510190005 28 211 1.6 3.2 0.00 0.00 0.00 43 988.3
20260510185504 28 191 3.2 4.8 0.00 0.00 0.00 43 988.4
20260510185005 28 296 3.2 4.8 0.00 0.00 0.00 42 988.4
20260510184505 29 337 1.6 3.2 0.00 0.00 0.00 41 988.5
20260510184005 29 215 1.6 3.2 0.00 0.00 0.00 39 988.5
20260510183505 28 300 1.6 4.8 0.00 0.00 0.00 40 988.5
20260510183004 27 270 0.0 1.6 0.00 0.00 0.00 43 988.5
20260510182505 27 258 1.6 8.0 0.00 0.00 0.00 42 988.6
20260510182005 27 269 4.8 8.0 0.00 0.00 0.00 41 988.7
20260510181505 27 180 1.6 4.8 0.00 0.00 0.00 42 988.8
20260510180505 27 314 1.6 4.8 0.00 0.00 0.00 43 988.9
20260510180005 27 350 1.6 4.8 0.00 0.00 0.00 43 989.0
20260510175505 26 239 3.2 8.0 0.00 0.00 0.00 40 989.1
20260510175005 26 246 1.6 8.0 0.00 0.00 0.00 42 989.1
20260510174504 26 332 3.2 8.0 0.00 0.00 0.00 41 989.1
20260510174004 26 289 3.2 4.8 0.00 0.00 0.00 44 989.1
20260510173505 26 214 3.2 8.0 0.00 0.00 0.00 49 989.1
20260510173005 26 336 1.6 8.0 0.00 0.00 0.00 43 989.1
20260510172505 26 292 0.0 4.8 0.00 0.00 0.00 47 989.1
20260510172005 26 246 1.6 4.8 0.00 0.00 0.00 47 989.1
20260510171505 26 267 3.2 8.0 0.00 0.00 0.00 44 989.1
20260510170004 26 173 0.0 3.2 0.00 0.00 0.00 46 989.2
20260510165505 25 330 1.6 3.2 0.00 0.00 0.00 46 989.3
20260510165005 25 294 1.6 8.0 0.00 0.00 0.00 44 989.3
20260510164505 25 292 0.0 1.6 0.00 0.00 0.00 42 989.2
20260510164005 25 16 0.0 9.7 0.00 0.00 0.00 46 989.2
20260510162504 25 156 0.0 3.2 0.00 0.00 0.00 56 989.2
20260510162005 25 229 1.6 3.2 0.00 0.00 0.00 57 989.2
20260510161505 25 187 0.0 3.2 0.00 0.00 0.00 54 989.2
20260510161005 25 8 0.0 4.8 0.00 0.00 0.00 57 989.1
20260510160505 24 297 1.6 4.8 0.00 0.00 0.00 60 989.2
20260510160005 23 270 0.0 3.2 0.00 0.00 0.00 63 989.2
20260510155505 23 232 1.6 3.2 0.00 0.00 0.00 68 989.2
20260510155005 23 233 0.0 3.2 0.00 0.00 0.00 68 989.3
20260510154504 23 160 1.6 4.8 0.00 0.00 0.00 68 989.3
20260510154004 22 247 1.6 8.0 0.00 0.00 0.00 70 989.3
20260510153504 22 291 3.2 8.0 0.00 0.00 0.00 73 989.3
20260510153004 22 193 0.0 4.8 0.00 0.00 0.00 74 989.4
20260510152504 22 311 1.6 4.8 0.00 0.00 0.00 74 989.4
20260510151004 21 333 1.6 4.8 0.00 0.00 0.00 81 989.4
20260510150504 21 314 3.2 4.8 0.00 0.00 0.00 82 989.5
20260510150004 21 308 3.2 4.8 0.00 0.00 0.00 83 989.5
20260510145504 21 25 0.0 3.2 0.00 0.00 0.00 84 989.4
20260510145004 20 324 3.2 4.8 0.00 0.00 0.00 84 989.4
20260510144504 20 330 1.6 8.0 0.00 0.00 0.00 85 989.4
20260510143004 19 253 1.6 4.8 0.00 0.00 0.00 88 989.5
20260510142504 19 271 1.6 8.0 0.00 0.00 0.00 89 989.5
20260510141504 18 337 3.2 8.0 0.00 0.00 0.00 92 989.5
20260510141004 18 316 1.6 9.7 0.00 0.00 0.00 93 989.5
20260510140504 18 271 1.6 3.2 0.00 0.00 0.00 96 989.4
20260510140004 17 176 1.6 3.2 0.00 0.00 0.00 97 989.4
20260510135503 17 311 3.2 4.8 0.00 0.00 0.00 98 989.4
20260510135005 17 101 1.6 4.8 0.00 0.00 0.00 98 989.3
20260510134503 16 358 1.6 4.8 0.00 0.00 0.00 98 989.3
20260510134004 16 41 3.2 4.8 0.00 0.00 0.00 98 989.3
20260510133504 16 193 1.6 3.2 0.00 0.00 0.00 98 989.3
20260510133004 15 353 1.6 3.2 0.00 0.00 0.00 98 989.3
20260510132505 15 38 1.6 1.6 0.00 0.00 0.00 98 989.2
20260510132004 15 13 0.0 1.6 0.00 0.00 0.00 98 989.3
20260510131504 15 30 0.0 1.6 0.00 0.00 0.00 98 989.3
20260510131005 14 37 0.0 3.2 0.00 0.00 0.00 98 989.2
20260510130505 14 59 0.0 3.2 0.00 0.00 0.00 98 989.3
20260510130004 13 99 0.0 3.2 0.00 0.00 0.00 98 989.2
20260510125504 13 80 0.0 1.6 0.00 0.00 0.00 98 989.2
20260510125004 13 91 0.0 1.6 0.00 0.00 0.00 98 989.1
20260510124005 13 68 0.0 1.6 0.00 0.00 0.00 97 988.9
20260510123505 13 256 0.0 1.6 0.00 0.00 0.00 97 988.9
20260510123005 12 107 0.0 1.6 0.00 0.00 0.00 97 988.8
20260510122505 12 118 0.0 1.6 0.00 0.00 0.00 97 988.8
20260510122005 12 112 0.0 1.6 0.00 0.00 0.00 97 988.7
20260510120505 12 98 0.0 1.6 0.00 0.00 0.00 97 988.6
20260510120005 12 100 0.0 1.6 0.00 0.00 0.00 97 988.5
20260510115505 12 137 0.0 1.6 0.00 0.00 0.00 97 988.5
20260510115006 12 132 0.0 1.6 0.00 0.00 0.00 97 988.4
20260510114504 12 96 0.0 1.6 0.00 0.00 0.00 97 988.3
20260510114006 12 108 0.0 1.6 0.00 0.00 0.00 97 988.2
20260510113005 12 103 0.0 0.0 0.00 0.00 0.00 97 988.0
20260510112505 12 98 0.0 1.6 0.00 0.00 0.00 97 988.0
20260510112005 12 128 0.0 1.6 0.00 0.00 0.00 97 987.9
20260510111505 12 164 0.0 1.6 0.00 0.00 0.00 97 987.9
20260510111005 12 148 0.0 1.6 0.00 0.00 0.00 96 987.8
20260510110505 12 154 0.0 1.6 0.00 0.00 0.00 96 987.7
20260510110005 11 135 0.0 1.6 0.00 0.00 0.00 96 987.6
20260510105505 11 160 1.6 3.2 0.00 0.00 0.00 96 987.6
20260510105005 11 163 0.0 1.6 0.00 0.00 0.00 96 987.5
20260510104505 12 203 0.0 1.6 0.00 0.00 0.00 96 987.5
20260510104006 11 181 0.0 1.6 0.00 0.00 0.00 96 987.4
20260510103505 11 132 0.0 1.6 0.00 0.00 0.00 96 987.4
20260510103006 11 153 0.0 1.6 0.00 0.00 0.00 96 987.4
20260510102504 11 157 0.0 1.6 0.00 0.00 0.00 96 987.5
20260510102004 11 153 0.0 0.0 0.00 0.00 0.00 96 987.5
20260510101505 12 215 0.0 1.6 0.00 0.00 0.00 96 987.4
20260510101005 12 192 0.0 1.6 0.00 0.00 0.00 96 987.3
20260510100505 12 153 0.0 0.0 0.00 0.00 0.00 96 987.3
20260510095005 12 187 0.0 0.0 0.00 0.00 0.00 96 986.9
20260510094504 12 187 0.0 0.0 0.00 0.00 0.00 96 986.9
20260510094005 12 150 0.0 1.6 0.00 0.00 0.00 96 986.9
20260510093505 12 178 0.0 0.0 0.00 0.00 0.00 96 987.0
20260510093005 12 208 0.0 1.6 0.00 0.00 0.00 95 986.9
20260510092505 12 177 0.0 0.0 0.00 0.00 0.00 95 986.8
20260510092005 12 150 0.0 1.6 0.00 0.00 0.00 95 986.8
20260510091005 12 132 0.0 0.0 0.00 0.00 0.00 95 986.7
20260510090504 12 171 0.0 1.6 0.00 0.00 0.00 95 986.7
20260510090005 12 235 0.0 1.6 0.00 0.00 0.00 95 986.8
20260510085505 12 151 0.0 0.0 0.00 0.00 0.00 95 986.8
20260510085004 12 157 0.0 0.0 0.00 0.00 0.00 95 986.7
20260510084504 12 115 0.0 1.6 0.00 0.00 0.00 95 986.7
20260510084004 12 211 0.0 1.6 0.00 0.00 0.00 95 986.7
20260510083004 12 112 0.0 1.6 0.00 0.00 0.00 95 986.8
20260510082505 12 249 0.0 1.6 0.00 0.00 0.00 95 986.7
20260510082004 12 218 0.0 0.0 0.00 0.00 0.00 94 986.7
20260510081006 12 218 0.0 0.0 0.00 0.00 0.00 94 986.6
20260510080504 12 218 0.0 1.6 0.00 0.00 0.00 94 986.5
20260510080005 12 268 0.0 0.0 0.00 0.00 0.00 94 986.4
20260510075504 12 268 0.0 0.0 0.00 0.00 0.00 94 986.3
20260510074004 12 294 0.0 0.0 0.00 0.00 0.00 94 986.2
20260510073504 13 285 0.0 0.0 0.00 0.00 0.00 94 986.1
20260510072004 13 233 0.0 0.0 0.00 0.00 0.00 94 986.2
20260510071505 13 150 0.0 0.0 0.00 0.00 0.00 94 986.2
20260510070504 13 222 0.0 1.6 0.00 0.00 0.00 93 986.1
20260510070004 13 118 0.0 0.0 0.00 0.00 0.00 93 986.1
20260510065004 13 330 0.0 0.0 0.00 0.00 0.00 93 986.1
20260510064005 13 207 0.0 0.0 0.00 0.00 0.00 93 986.2
20260510063504 13 207 0.0 0.0 0.00 0.00 0.00 92 986.2
20260510062504 13 200 0.0 1.6 0.00 0.00 0.00 92 986.2
20260510062005 13 335 0.0 1.6 0.00 0.00 0.00 92 986.2
20260510061505 13 305 0.0 0.0 0.00 0.00 0.00 92 986.2
20260510061004 13 289 0.0 0.0 0.00 0.00 0.00 92 986.1
20260510060005 13 61 0.0 1.6 0.00 0.00 0.00 91 986.1
20260510055004 13 221 0.0 1.6 0.00 0.00 0.00 91 986.1
20260510054504 13 132 0.0 1.6 0.00 0.00 0.00 91 986.0
20260510054004 13 122 0.0 1.6 0.00 0.00 0.00 91 986.0
20260510053504 13 19 0.0 1.6 0.00 0.00 0.00 91 986.1
20260510052504 13 135 0.0 1.6 0.00 0.00 0.00 90 986.1
20260510052005 13 128 0.0 1.6 0.00 0.00 0.00 90 986.1
20260510051504 13 124 0.0 1.6 0.00 0.00 0.00 90 986.1
20260510051004 13 127 0.0 1.6 0.00 0.00 0.00 90 986.2
20260510050504 13 140 0.0 1.6 0.00 0.00 0.00 90 986.2
20260510045504 13 130 0.0 1.6 0.00 0.00 0.00 89 986.1
20260510045005 13 161 0.0 1.6 0.00 0.00 0.00 89 986.1
20260510044504 13 149 0.0 1.6 0.00 0.00 0.00 89 986.0
20260510044004 13 168 0.0 0.0 0.00 0.00 0.00 89 986.0
20260510043504 13 168 0.0 0.0 0.00 0.00 0.00 89 986.0
20260510042504 14 303 0.0 0.0 0.00 0.00 0.00 88 986.0
20260510042004 14 151 0.0 1.6 0.00 0.00 0.00 88 986.0
20260510041505 14 148 0.0 1.6 0.00 0.00 0.00 88 986.0
20260510041004 14 207 0.0 1.6 0.00 0.00 0.00 88 986.0
20260510040504 14 199 0.0 0.0 0.00 0.00 0.00 87 986.0
20260510040004 14 231 0.0 1.6 0.00 0.00 0.00 87 986.0
20260510035504 14 245 0.0 1.6 0.00 0.00 0.00 87 986.0
20260510035004 14 155 0.0 1.6 0.00 0.00 0.00 86 986.0
20260510034503 15 304 0.0 1.6 0.00 0.00 0.00 86 985.9
20260510034004 15 272 0.0 1.6 0.00 0.00 0.00 86 986.0
20260510033505 15 235 0.0 1.6 0.00 0.00 0.00 86 986.0
20260510031505 15 144 0.0 3.2 0.00 0.00 0.00 85 985.9
20260510030504 15 220 0.0 3.2 0.00 0.00 0.00 84 985.9
20260510024505 15 297 0.0 1.6 0.00 0.00 0.00 83 985.7
20260510024004 16 242 0.0 1.6 0.00 0.00 0.00 83 985.6
20260510023505 16 165 0.0 1.6 0.00 0.00 0.00 82 985.5
20260510023005 16 137 0.0 1.6 0.00 0.00 0.00 82 985.5
20260510022505 16 161 0.0 0.0 0.00 0.00 0.00 82 985.4
20260510022005 16 7 0.0 1.6 0.00 0.00 0.00 81 985.3
20260510021506 16 280 0.0 1.6 0.00 0.00 0.00 81 985.3
20260510021006 16 154 0.0 0.0 0.00 0.00 0.00 81 985.2
20260510020005 16 228 0.0 1.6 0.00 0.00 0.00 80 985.1
20260510015505 17 32 0.0 1.6 0.00 0.00 0.00 80 985.0
20260510015004 17 224 0.0 1.6 0.00 0.00 0.00 80 984.9
20260510013504 18 122 0.0 1.6 0.00 0.00 0.00 78 984.7
20260510012005 18 339 1.6 3.2 0.00 0.00 0.00 76 984.6
20260510011005 19 344 1.6 4.8 0.00 0.00 0.00 76 984.4
20260510010505 19 319 1.6 3.2 0.00 0.00 0.00 75 984.4
20260510004505 21 282 0.0 1.6 0.00 0.00 0.00 71 984.1
20260510004005 21 297 0.0 1.6 0.00 0.00 0.00 69 984.0
20260510003504 21 299 0.0 1.6 0.00 0.00 0.00 68 984.0
20260510002504 22 338 1.6 1.6 0.00 0.00 0.00 64 984.0
20260510002004 22 1 0.0 1.6 0.00 0.00 0.00 64 983.9
20260510001004 22 326 1.6 3.2 0.00 0.00 0.00 61 983.9
20260510000505 22 357 0.0 1.6 0.00 0.00 0.00 61 984.0
20260510000005 23 0 1.6 1.6 0.00 0.00 0.00 59 983.9
20260509235504 23 2 0.0 1.6 0.00 0.00 0.00 57 983.9
20260509235005 23 348 0.0 1.6 0.00 0.00 0.00 57 984.0
20260509234505 24 26 1.6 1.6 0.00 0.00 0.00 57 983.9
20260509234005 24 26 0.0 3.2 0.00 0.00 0.00 57 983.8
20260509233506 24 306 1.6 3.2 0.00 0.00 0.00 50 983.7
20260509232004 24 325 1.6 3.2 0.00 0.00 0.00 49 983.7